Torna al catalogo

STARLINK-32177

AttivoComunicazioniVLEO
NORAD 60441·PAYLOAD·🇺🇸 United States

Lanciato Aug 12, 2024 da Cape Canaveral Space Force Station

Loading…

Prossimi Passaggi (prossime 24 ore)

TLE

AggiornatoSource: CelesTrak SupGP

Epoca: Sep 14, 2026, 22:34 UTC

1 60441C 24144S   26257.94076389  .00036717  00000+0  10852-2 0  2576
2 60441  53.1585  53.5836 0000996  60.5174  86.9709 15.34360496    12

Traccia STARLINK-32177 in tempo reale con AllMySat

Download on the App Store